Location: Marstown
(39.5056°N, 77.0820°W)
Time: 23:30:18
(UTC-04:00)

ISS - Visible Passes

Search period start: 19 September 2018 00:00
Search period end: 29 September 2018 00:00
Orbit: 402 x 408 km, 51.6° (Epoch: 20 September)

Date Brightness Start Highest point End Pass type
(mag) Time Alt. Az. Time Alt. Az. Time Alt. Az.
19 Sep -1.1 05:01:43 11° SSE 05:01:43 11° SSE 05:01:56 10° SSE visible
20 Sep -2.5 20:42:55 10° SSW 20:44:50 29° S 20:44:50 29° S visible
21 Sep -2.5 19:51:36 10° S 19:54:13 22° SE 19:55:53 15° E visible
21 Sep -1.1 21:27:27 10° WSW 21:28:37 19° W 21:28:37 19° W visible
22 Sep -3.6 20:35:14 10° WSW 20:38:31 70° NW 20:39:25 43° NNE visible
23 Sep -3.7 19:43:18 10° SW 19:46:32 58° SE 19:49:47 10° ENE visible
23 Sep -1.2 21:20:39 10° WNW 21:22:42 20° NW 21:22:42 20° NW visible
24 Sep -2.1 20:28:04 10° W 20:31:04 31° NNW 20:33:04 17° NNE visible
25 Sep -3.1 19:35:43 10° WSW 19:38:57 54° NW 19:42:11 10° NE visible
25 Sep -0.9 21:14:10 10° NW 21:16:00 14° NNW 21:16:00 14° NNW visible
26 Sep -1.3 20:21:18 10° WNW 20:23:43 18° NNW 20:26:07 10° NNE visible
27 Sep -1.9 19:28:36 10° W 19:31:28 27° NNW 19:34:20 10° NNE visible
27 Sep -0.8 21:07:53 10° NNW 21:08:49 11° N 21:08:49 11° N visible
28 Sep -1.0 20:14:49 10° NW 20:16:27 13° NNW 20:18:03 10° NNE visible
